When you browse on this site, cookies collect data to enhance your experience and personalize the content and advertising you see.
Visit our Privacy Policy to learn more. By continuing to use the site, you agree to this use of cookies and data.
  • In Österreich
  • Länderverzeichnis
  • Für 7 Tage
  • Wassertemperatur
  • Satellitenkarten
  • Wetterkarte
  • News
  • Widgets
  • user-avatar
    Anmelden

    Stündliche Wetter Buykovichi

    Heute, 21 Juli, Sonntag

    Zeit Temperatur Niederschläge Wind Luftdruck Luftfeuchtigkeit
    00:00 +16°C° 0 mm 0 m/S 752 mmHg 87%
    01:00 +16°C° 0 mm 0 m/S 752 mmHg 89%
    02:00 +16°C° 0 mm 1 m/S 752 mmHg 87%
    03:00 +15°C° 0 mm 0 m/S 752 mmHg 88%
    04:00 +15°C° 0 mm 0 m/S 752 mmHg 88%
    05:00 +15°C° 0 mm 0 m/S 752 mmHg 88%
    06:00 +17°C° 0 mm 0 m/S 752 mmHg 82%
    07:00 +21°C° 0 mm 1 m/S 752 mmHg 75%
    08:00 +24°C° 0 mm 1 m/S 752 mmHg 70%
    09:00 +25°C° 0 mm 1 m/S 752 mmHg 63%
    10:00 +27°C° 0 mm 1 m/S 752 mmHg 57%
    11:00 +28°C° 0 mm 1 m/S 752 mmHg 50%
    12:00 +29°C° 0 mm 1 m/S 752 mmHg 48%
    13:00 +29°C° 0 mm 1 m/S 752 mmHg 46%
    14:00 +28°C° 0 mm 0 m/S 752 mmHg 45%
    15:00 +29°C° 0 mm 1 m/S 752 mmHg 46%
    16:00 +29°C° 0 mm 1 m/S 751 mmHg 48%
    17:00 +29°C° 0 mm 1 m/S 751 mmHg 50%
    18:00 +27°C° 0 mm 1 m/S 751 mmHg 56%
    19:00 +25°C° 0 mm 1 m/S 751 mmHg 63%
    20:00 +23°C° 0 mm 1 m/S 751 mmHg 70%
    21:00 +22°C° 0.1 mm 1 m/S 751 mmHg 73%
    22:00 +22°C° 0.1 mm 1 m/S 751 mmHg 77%
    23:00 +20°C° 0.1 mm 2 m/S 751 mmHg 80%

    Morgen, 22 Juli, Montag

    Zeit Temperatur Niederschläge Wind Luftdruck Luftfeuchtigkeit
    00:00 +20°C° 0.1 mm 2 m/S 751 mmHg 83%
    01:00 +20°C° 0.1 mm 1 m/S 751 mmHg 86%
    02:00 +20°C° 0.1 mm 1 m/S 750 mmHg 89%
    03:00 +20°C° 0.4 mm 1 m/S 750 mmHg 91%
    04:00 +20°C° 0.4 mm 1 m/S 750 mmHg 93%
    05:00 +19°C° 0.4 mm 1 m/S 750 mmHg 95%
    06:00 +19°C° 0.2 mm 2 m/S 750 mmHg 95%
    07:00 +19°C° 0.2 mm 2 m/S 750 mmHg 95%
    08:00 +19°C° 0.2 mm 2 m/S 750 mmHg 94%
    09:00 +19°C° 1.2 mm 2 m/S 750 mmHg 94%
    10:00 +19°C° 1.2 mm 2 m/S 750 mmHg 93%
    11:00 +20°C° 1.2 mm 1 m/S 750 mmHg 92%
    12:00 +21°C° 0.4 mm 2 m/S 750 mmHg 85%
    13:00 +23°C° 0.4 mm 2 m/S 750 mmHg 79%
    14:00 +25°C° 0.4 mm 2 m/S 750 mmHg 72%
    15:00 +24°C° 0.7 mm 3 m/S 750 mmHg 75%
    16:00 +24°C° 0.7 mm 3 m/S 750 mmHg 79%
    17:00 +22°C° 0.7 mm 4 m/S 750 mmHg 82%
    18:00 +21°C° 0.1 mm 3 m/S 750 mmHg 85%
    19:00 +20°C° 0.1 mm 3 m/S 750 mmHg 88%
    20:00 +19°C° 0.1 mm 2 m/S 750 mmHg 91%
    21:00 +18°C° 0 mm 2 m/S 750 mmHg 92%
    22:00 +17°C° 0 mm 2 m/S 751 mmHg 94%
    23:00 +17°C° 0 mm 3 m/S 751 mmHg 95%

    übermorgen, 23 Juli, Dienstag

    Zeit Temperatur Niederschläge Wind Luftdruck Luftfeuchtigkeit
    00:00 +16°C° 0 mm 3 m/S 751 mmHg 95%
    01:00 +16°C° 0 mm 3 m/S 751 mmHg 94%
    02:00 +14°C° 0 mm 3 m/S 750 mmHg 93%
    03:00 +14°C° 0 mm 3 m/S 751 mmHg 95%
    04:00 +13°C° 0 mm 3 m/S 751 mmHg 96%
    05:00 +12°C° 0 mm 3 m/S 751 mmHg 97%
    06:00 +13°C° 0 mm 3 m/S 750 mmHg 93%
    07:00 +14°C° 0 mm 3 m/S 750 mmHg 90%
    08:00 +15°C° 0 mm 4 m/S 750 mmHg 86%
    09:00 +17°C° 0 mm 4 m/S 750 mmHg 84%
    10:00 +17°C° 0 mm 4 m/S 750 mmHg 82%
    11:00 +18°C° 0 mm 4 m/S 750 mmHg 80%
    12:00 +19°C° 0 mm 4 m/S 750 mmHg 78%
    13:00 +20°C° 0 mm 3 m/S 750 mmHg 75%
    14:00 +20°C° 0 mm 3 m/S 750 mmHg 72%
    15:00 +20°C° 0 mm 3 m/S 750 mmHg 73%
    16:00 +20°C° 0 mm 3 m/S 750 mmHg 74%
    17:00 +20°C° 0 mm 3 m/S 750 mmHg 75%
    18:00 +19°C° 0 mm 2 m/S 749 mmHg 81%
    19:00 +18°C° 0 mm 2 m/S 749 mmHg 87%
    20:00 +18°C° 0 mm 1 m/S 749 mmHg 93%
    21:00 +18°C° 0 mm 1 m/S 749 mmHg 95%
    22:00 +16°C° 0 mm 2 m/S 749 mmHg 96%
    23:00 +16°C° 0 mm 2 m/S 750 mmHg 97%

    24 Juli, Mittwoch

    Zeit Temperatur Niederschläge Wind Luftdruck Luftfeuchtigkeit
    00:00 +15°C° 0 mm 2 m/S 750 mmHg 97%
    01:00 +15°C° 0 mm 2 m/S 750 mmHg 97%
    02:00 +15°C° 0 mm 2 m/S 750 mmHg 97%
    03:00 +15°C° 0 mm 2 m/S 750 mmHg 97%
    04:00 +15°C° 0 mm 2 m/S 750 mmHg 97%
    05:00 +15°C° 0 mm 2 m/S 750 mmHg 97%
    06:00 +17°C° 0 mm 2 m/S 750 mmHg 91%
    07:00 +18°C° 0 mm 2 m/S 750 mmHg 85%
    08:00 +20°C° 0 mm 3 m/S 750 mmHg 79%
    09:00 +22°C° 0 mm 3 m/S 750 mmHg 72%
    10:00 +24°C° 0 mm 3 m/S 750 mmHg 64%
    11:00 +26°C° 0 mm 4 m/S 750 mmHg 57%
    12:00 +27°C° 0 mm 4 m/S 750 mmHg 54%
    13:00 +27°C° 0 mm 4 m/S 750 mmHg 52%
    14:00 +28°C° 0 mm 4 m/S 750 mmHg 50%
    15:00 +27°C° 0 mm 4 m/S 750 mmHg 52%
    16:00 +27°C° 0 mm 4 m/S 750 mmHg 54%
    17:00 +27°C° 0 mm 4 m/S 750 mmHg 57%
    18:00 +25°C° 0 mm 3 m/S 750 mmHg 65%
    19:00 +22°C° 0 mm 3 m/S 751 mmHg 72%
    20:00 +20°C° 0 mm 2 m/S 751 mmHg 80%
    21:00 +19°C° 0 mm 2 m/S 751 mmHg 84%
    22:00 +18°C° 0 mm 2 m/S 752 mmHg 87%
    23:00 +18°C° 0 mm 2 m/S 752 mmHg 90%

    25 Juli, Donnerstag

    Zeit Temperatur Niederschläge Wind Luftdruck Luftfeuchtigkeit
    00:00 +17°C° 0 mm 2 m/S 752 mmHg 91%
    01:00 +17°C° 0 mm 2 m/S 752 mmHg 91%
    02:00 +16°C° 0 mm 2 m/S 752 mmHg 92%
    03:00 +16°C° 0 mm 2 m/S 752 mmHg 92%
    04:00 +16°C° 0 mm 2 m/S 753 mmHg 92%
    05:00 +15°C° 0 mm 2 m/S 753 mmHg 91%
    06:00 +17°C° 0 mm 2 m/S 753 mmHg 84%
    07:00 +19°C° 0 mm 2 m/S 753 mmHg 77%
    08:00 +21°C° 0 mm 2 m/S 753 mmHg 70%
    09:00 +24°C° 0 mm 3 m/S 753 mmHg 63%
    10:00 +26°C° 0 mm 3 m/S 753 mmHg 55%
    11:00 +27°C° 0 mm 4 m/S 753 mmHg 48%
    12:00 +28°C° 0 mm 4 m/S 753 mmHg 47%
    13:00 +28°C° 0 mm 4 m/S 753 mmHg 46%
    14:00 +28°C° 0 mm 4 m/S 753 mmHg 46%
    15:00 +28°C° 0 mm 4 m/S 753 mmHg 48%
    16:00 +28°C° 0 mm 4 m/S 752 mmHg 51%
    17:00 +28°C° 0 mm 3 m/S 752 mmHg 53%
    18:00 +26°C° 0 mm 3 m/S 752 mmHg 61%
    19:00 +24°C° 0 mm 2 m/S 752 mmHg 69%
    20:00 +21°C° 0 mm 2 m/S 752 mmHg 77%
    21:00 +20°C° 0 mm 2 m/S 753 mmHg 79%
    22:00 +19°C° 0 mm 2 m/S 753 mmHg 80%
    23:00 +17°C° 0 mm 2 m/S 753 mmHg 82%

    26 Juli, Freitag

    Zeit Temperatur Niederschläge Wind Luftdruck Luftfeuchtigkeit
    00:00 +17°C° 0 mm 2 m/S 753 mmHg 84%
    01:00 +17°C° 0 mm 2 m/S 753 mmHg 85%
    02:00 +16°C° 0 mm 2 m/S 753 mmHg 87%
    03:00 +16°C° 0 mm 2 m/S 753 mmHg 89%
    04:00 +16°C° 0 mm 2 m/S 753 mmHg 90%
    05:00 +16°C° 0 mm 2 m/S 753 mmHg 91%
    06:00 +18°C° 0 mm 2 m/S 753 mmHg 85%
    07:00 +20°C° 0 mm 2 m/S 753 mmHg 78%
    08:00 +22°C° 0 mm 3 m/S 753 mmHg 72%
    09:00 +24°C° 0 mm 3 m/S 753 mmHg 64%
    10:00 +26°C° 0 mm 3 m/S 753 mmHg 56%
    11:00 +28°C° 0 mm 3 m/S 753 mmHg 49%
    12:00 +28°C° 0 mm 3 m/S 753 mmHg 48%
    13:00 +28°C° 0 mm 3 m/S 752 mmHg 47%
    14:00 +29°C° 0 mm 3 m/S 752 mmHg 46%
    15:00 +29°C° 0 mm 3 m/S 752 mmHg 48%
    16:00 +29°C° 0 mm 3 m/S 752 mmHg 50%
    17:00 +28°C° 0 mm 3 m/S 752 mmHg 52%
    18:00 +26°C° 0 mm 2 m/S 752 mmHg 61%
    19:00 +24°C° 0 mm 2 m/S 752 mmHg 71%
    20:00 +21°C° 0 mm 2 m/S 752 mmHg 80%
    21:00 +21°C° 0 mm 2 m/S 752 mmHg 84%
    22:00 +20°C° 0 mm 2 m/S 752 mmHg 87%
    23:00 +19°C° 0 mm 2 m/S 752 mmHg 90%
    Mehr zeigen